IRIDIUM 33 DEB

Satellite information

Favourite Embed

Satellite Type and Status

DEBRISIN ORBIT

Key statistics

Satellite IRIDIUM 33 DEB at a glance.

Uptime

10318

Days in orbit

Revolutions

≈ 14.3

Per day

Orbit

LEO

Low Earth Orbit

Inclination

86.3

Latest

Satellite identification and parameters

Extended collection of information and parameters for IRIDIUM 33 DEB.

Object identification

Identified? True

Debris? True

Object name: IRIDIUM 33 DEB

International designator: 1997-051ABN

Object number (NORAD): 46435

Object ID (CCSDS): 46435

Country: UNITED STATES OF AMERICA (US)

Current information (Y/N): Y

RCS size: SMALL

Orbital parameters

Period: 100.567 minutes

Inclination: 86.2835 deg

SMA: 7163.563 km

Apoapsis: 936.068 km

Periapsis: 634.788 km

RAAN: 195.8323 deg

Eccentricy: 0.02102864

Argument of periapsis: 290.5462 deg

Mean anomaly: 252.8586 deg

Mean motion: 14.31888327 rev/day

Mean motion (dot): 0.00031152 rev/day2

B* drag term: 0.0090831914 1/REarth

Two-line elements (TLE)

Creation date: Dec. 8, 2025, 6:20 p.m.

Reference frame: TEME

Reference center: EARTH

Epoch: Dec. 8, 2025, 8:41 a.m. UTC

TLE line 0: 0 IRIDIUM 33 DEB

TLE line 1: 1 46435U 97051ABN 25342.36181939 .00031152 00000-0 90832-2 0 9996

TLE line 2: 2 46435 86.2835 195.8323 0210286 290.5462 252.8586 14.31888327 78538

Live tracking on map

Real-time ground track for satellite IRIDIUM 33 DEB.

In-orbit conjunctions

A list of the most updated potential collisions computed for object IRIDIUM 33 DEB.

Target Orbit TCA Probability of collision Miss distance Type
DELTA 1 DEB SSO 2025-12-10 16:04:49 0.0001566431 134.0 (m) DEBRIS
COSMOS 860 COOLANT LEO 2025-07-25 11:20:55 0.0001482334 71.0 (m) DEBRIS
SUNSAT SSO 2025-06-02 16:53:22 0.0001028445 566.0 (m) PAYLOAD

Associated space launch

Iridium provides global mobile telecommunications services using a constellation of 66 low earth orbit satellites in a 86.4° inclined orbit. Although 77 satellites were originally envisioned for the system and spawned the name based on the 77th element in the periodic table, the system has been scaled back. Motorola's Satellite Communications Group designed and manufactured the Iridium satellites with Lockheed Martin providing the LM-700A spacecraft buses.

IRIDIUM 33 DEB was lifted into orbit during the mission ‘Proton-K/17S40 | Iridium 27 to 33’, on board a Proton-K/17S40 space rocket.

The launch took place on Sept. 14, 1997, 1:36 a.m. from 81/23 (81L).

For more information about the launch, click the button.

Launch to space Proton-K/17S40 | Iridium 27 to 33
Proton-K/17S40 | Iridium 27 to 33

Agency: N/A

Status: Launch Successful

Launch date: Sept. 14, 1997, 1:36 a.m. UTC

Rocket: Proton-K/17S40

Launch pad: 81/23 (81L)

Location: Baikonur Cosmodrome, Republic of Kazakhstan

...

Latest news about this satellite

There are no fresh news available about this satellite. Check back as we update our databases every day.


Newsletter sign-up

Weekly statistics, charts and insights to help you stay on top of the space industry.